User: anonymous   Login
Location: Unspecified
(0.0000°N, 0.0000°E)
Time: 07:49:16
(UTC+01:00)
Language:

Cosmos 2219 - Orbit

View from above orbital plane
View from above orbital plane
View from above satellite
View from above satellite

Ground track
Ground track

The orbit data is extracted from the following two-line orbital elements,

1 22219U 92076A   14331.49262174 -.00000064  00000-0 -91254-5 0  6633
2 22219 071.0585 345.8780 0017875 005.5646 146.3773 14.13502574136411
Epoch (UTC): 27 November 2014 11:49:22
Eccentricity: 0.0017875
inclination: 71.0585°
perigee height: 834 km
apogee height: 860 km
right ascension of ascending node: 345.8780°
argument of perigee: 5.5646°
revolutions per day: 14.13502574
mean anomaly at epoch: 146.3773°
orbit number at epoch: 13641

The dashed part of the orbit path shows where the satellite is in the earth's shadow,  

DLR